This is the latest recevied weather packets stored in our database for station/object N2XGL-1. If no packets are shown the sender has not sent any weather packets the latest 10 day(s).
| Time | Temp. | Humidity | Pressure | Rain* | Wind** | Luminosity | Snow |
|---|---|---|---|---|---|---|---|
| 1777264118 | 5° C | 87% | 1002.9 hPa | 0 mm | - | - | - |
| 1777263581 | 5° C | 87% | 1002.8 hPa | 0 mm | - | - | - |
| 1777263034 | 5° C | 86% | 1002.7 hPa | 0 mm | - | - | - |
| 1777262534 | 5.56° C | 86% | 1002.7 hPa | 0 mm | - | - | - |
| 1777262146 | 5.56° C | 86% | 1002.6 hPa | 0 mm | - | - | - |
| 1777262029 | 5.56° C | 86% | 1002.6 hPa | 0 mm | - | - | - |
| 1777261449 | 5.56° C | 85% | 1002.6 hPa | 0 mm | - | - | - |
| 1777260865 | 5.56° C | 84% | 1002.6 hPa | 0 mm | - | - | - |
| 1777260369 | 5.56° C | 83% | 1002.5 hPa | 0 mm | - | - | - |
| 1777259769 | 6.11° C | 82% | 1002.5 hPa | 0 mm | - | - | - |
| 1777258702 | 6.67° C | 82% | 1002.1 hPa | 0 mm | - | - | - |
| 1777258114 | 7.22° C | 80% | 1002 hPa | 0 mm | - | - | - |
| 1777257519 | 7.22° C | 80% | 1001.7 hPa | 0 mm | - | - | - |
| 1777256964 | 7.78° C | 79% | 1001.6 hPa | 0 mm | - | - | - |
| 1777256461 | 7.78° C | 79% | 1001.5 hPa | 0 mm | - | - | - |
| 1777255349 | 8.33° C | 77% | 1001.2 hPa | 0 mm | - | - | - |
| 1777254774 | 8.89° C | 76% | 1001.3 hPa | 0 mm | - | - | - |
| 1777254219 | 8.89° C | 75% | 1001.1 hPa | 0 mm | - | - | - |
| 1777253659 | 9.44° C | 74% | 1001 hPa | 0 mm | - | - | - |
| 1777253064 | 9.44° C | 73% | 1000.7 hPa | 0 mm | - | - | - |
| 1777252559 | 10° C | 72% | 1000.6 hPa | 0 mm | - | - | - |
| 1777252001 | 10° C | 72% | 1000.5 hPa | 0 mm | - | - | - |
| 1777251414 | 10° C | 72% | 1000.2 hPa | 0 mm | - | - | - |
| 1777250319 | 10° C | 74% | 1000.4 hPa | 0 mm | - | - | - |
| 1777249821 | 10° C | 74% | 1000.3 hPa | 0 mm | - | - | - |
* Rain latest hour (hover to see other rain measurements)
** Current wind speed in m/s (hover to see current wind gust speed)